Regional Weather Roundup
Issued by NWS Wakefield, VA

Home | Current Version | Previous Version | Text Only | Print | Product List | Glossary Off
Versions: 1 2 3 4 5 6 7 8 9 10 11 12 13 14 15 16 17 18 19 20 21 22 23 24 25 26 27 28 29 30 31 32 33 34 35 36 37 38 39 40 41 42 43 44 45 46 47 48 49 50

000
ASUS41 KAKQ 192310
RWRAKQ

REGIONAL WEATHER ROUNDUP
NATIONAL WEATHER SERVICE WAKEFIELD VA
700 PM EDT FRI SEP 19 2014

Note: "fair" indicates few or no clouds below 12,000 feet with no
significant weather and/or obstructions to visibility. * = Denotes
station may not report precipitation (e.g., rain,snow,etc.),
thunder or fog.

VAZ042-051-052>054-056-200000-
NORTHERN VIRGINIA

CITY           SKY/WX    TMP DP  RH WIND       PRES   REMARKS
WASH NATIONAL  PTCLDY    73  57  57 E12       30.26S
DULLES         MOCLDY    69  53  56 SE6       30.26R
FORT BELVOIR   CLOUDY    70  56  61 VRB3      30.26R
QUANTICO       CLOUDY    73  55  53 E8        30.26R
FREDERICKSBRG* CLOUDY    73  59  62 CALM      30.24R
STAFFORD*      CLOUDY    70  59  68 CALM      30.29R
WARRENTON      CLOUDY    70  64  81 CALM      30.25S
CULPEPER*      CLOUDY    70  61  73 CALM      30.26S
MANASSAS*      NOT AVBL
LEESBURG*      CLOUDY    72  55  56 S6        30.26S
WINCHESTER     PTCLDY    68  55  64 SE3       30.25S
FRONT ROYAL*   CLOUDY    68  59  73 CALM      30.24F
LURAY*         CLOUDY    68  57  68 SW5       30.26R
$$

VAZ048-049-060>072-079>083-200000-
CENTRAL AND SOUTH CENTRAL VIRGINIA...AND NORTH CENTRAL NORTH CAROLINA

CITY           SKY/WX    TMP DP  RH WIND       PRES   REMARKS
RICHMOND       MOCLDY    73  56  54 E7        30.24S
CHESTERFIELD*  CLOUDY   N/A N/A N/A E5        30.25S
PETERSBURG*    CLOUDY    69  60  72 E5        30.24S
HANOVER        MOCLDY    69  62  78 CALM      30.25S
TAPPAHANNOCK*  CLEAR     69  50  51 CALM      30.25S
CHARLOTTSVILLE CLOUDY    66  59  78 CALM      30.26R
ORANGE*        CLOUDY    68  61  77 CALM      30.27R
LOUISA*        CLOUDY    70  63  78 CALM      30.24S
FARMVILLE*     CLOUDY    68  63  83 CALM      30.23R
CREWE*         CLOUDY    67  62  83 CALM      30.23F
FORT PICKETT*  CLOUDY    69  63  81 CALM      30.23F
LUNENBURG*     CLOUDY    70  62  75 CALM      30.23F
SOUTH HILL*    PTCLDY    72  64  78 CALM      30.28S
LAWRENCEVILLE* CLOUDY    69  64  82 CALM      30.23S
ROANOKE RAPIDS CLOUDY    70  61  73 NE5       30.22S
RALEIGH        PTCLDY    72  61  68 NE6       30.20S
$$

VAZ088>098-200000-
SOUTHEAST VIRGINIA

CITY           SKY/WX    TMP DP  RH WIND       PRES   REMARKS
NORFOLK        CLEAR     71  56  58 E8        30.24S
VIRGINIA BEACH PTCLDY    70  56  61 E7        30.23S
NORFOLK NAVAL  PTCLDY    72  57  59 E9        30.26R
WEST POINT*    CLEAR     69  61  76 CALM      30.26S
NEWPORT NEWS   PTCLDY    71  58  63 E3        30.25R
LANGLEY AFB    CLEAR     70  57  63 E7        30.24S
FORT EUSTIS    MOCLDY    72  51  47 VRB5      30.23S
WILLIAMSBURG*  MOCLDY    72  63  73 E5        30.25S
HR EXEC AP*    CLEAR     70  55  60 E3        30.26R
FRANKLIN*      CLEAR     70  61  73 CALM      30.23S
WAKEFIELD      CLOUDY    70  59  68 CALM      30.24S
$$

VAZ020-022-025-037-045-200000-
WEST CENTRAL AND SOUTHWEST VIRGINIA

CITY           SKY/WX    TMP DP  RH WIND       PRES   REMARKS
STAUNTON*      CLOUDY    65  55  70 CALM      30.28F
HOT SPRINGS VA CLOUDY    50  47  90 SE6       30.33R FOG
LYNCHBURG      LGT RAIN  63  60  90 N6        30.26F
DANVILLE       MOCLDY    68  61  78 NE5       30.23S
SOUTH BOSTON*  NOT AVBL
MARTINSVILLE   CLOUDY    66  64  91 N5        30.26S
ROANOKE        CLOUDY    61  58  90 NW3       30.27F
BLACKSBURG     CLOUDY    61  61 100 E7        30.29S
DUBLIN*        MOCLDY    63  60  93 E6        30.27R
MARION*        CLOUDY    66  58  75 E5        30.26R
HILLSVILLE*    CLOUDY    61  58  89 SE5       30.26S
RICHLANDS*     CLEAR     69  58  68 SE6       30.20R
WISE*          MOCLDY    70  57  64 S6        30.19R
ABINGDON*      CLEAR     72  57  59 S7        30.18R
$$

MDZ021>025-VAZ099-100-200000-
SOUTHERN MARYLAND AND THE DELMARVA PENINSULA

CITY           SKY/WX    TMP DP  RH WIND       PRES   REMARKS
PATUXENT RIVER MOCLDY    70  60  70 E14       30.26S
BAY BRIDGE APT   N/A     68  55  64 E10       30.28R
LEONARDTOWN    CLOUDY    68  57  68 E7        30.27S
DOVER          MOCLDY    66  59  77 E12       30.27F
GEORGETOWN     CLEAR     67  58  72 E15G22    30.29S
EASTON         CLEAR     68  59  73 CALM      30.31S
CAMBRIDGE      CLEAR     70  59  68 E7        30.27S
SALISBURY      CLEAR     70  60  70 E7        30.27S
OCEAN CITY     CLEAR     70  60  70 E14G21    30.27S
WALLOPS ISLAND CLEAR     70  58  65 E7        30.26F
ACCOMACK*      CLEAR     64  57  77 E3        30.25S
$$

NCZ012>017-030>032-200000-
EASTERN NORTH CAROLINA

CITY           SKY/WX    TMP DP  RH WIND       PRES   REMARKS
ELIZABETH CITY CLEAR     71  58  63 NE10      30.23R
AHOSKIE*       PTCLDY    69  58  67 CALM      30.23S
EDENTON*       CLEAR     70  59  68 NE6       30.22S
CURRITUCK*     CLEAR     72  57  58 NE6       30.24S
KILL DEVIL HLS CLEAR     73  57  57 NE8       30.21R
MANTEO         CLEAR     72  57  60 NE13      30.22S
CAPE HATTERAS  MOCLDY    71  62  73 NE8       30.18R
TARBORO*       CLEAR     71  59  66 E3        30.22R
GOLDSBORO      PTCLDY    74  65  72 CALM      30.17R
WASHINGTON     PTCLDY    72  58  62 NE6       30.21R
GREENVILLE     CLEAR     73  59  60 NE9       30.21S
NEW BERN       MOCLDY    76  60  57 NE9       30.20R
WILMINGTON     MOCLDY    74  65  73 NE12      30.14S
$$

VAZ048-200000-
ELSEWHERE

CITY           SKY/WX    TMP DP  RH WIND       PRES   REMARKS
HARRISBURG PA  PTCLDY    67  53  61 SE10      30.26R
BALTIMORE      MOCLDY    69  57  65 E10       30.26S
ANNAPOLIS      CLOUDY    70  58  65 E13       30.27R
ANDREWS AFB    PTCLDY    68  59  73 E6        30.26S
WILMINGTON DE  CLEAR     65  55  70 E13       30.31R
PHILADELPHIA   PTCLDY    64  53  67 E13       30.32S
WILDWOOD NJ*   PTCLDY    66  55  68 E9        30.30F
ATLANTIC CITY  PTCLDY    62  56  80 E8        30.31F
HENDERSON NC   CLOUDY    70  62  75 NE3       30.22S
GREENSBORO     MOCLDY    69  62  78 NE8       30.20F
ROCKY MOUNT    PTCLDY    72  53  51 NE5       30.20S
FAYETTEVILLE   PTCLDY    75  62  64 E9        30.16R
CHARLOTTE      PTCLDY    76  57  51 E9        30.17R
$$

VAZ100-200000-
MARINE

STATION/POSITION TIME  TEMP    WIND        PRES    WAVE   SWELL
                       AIR SEA DIR/SP/G            HT/PER HT/PER
                 (UTC) (F)     (DEG/KT/KT) (MB)    (FT/S) (FT/S)
44066 TX TWR #4  2300   64 72   70/ 16/ 19 1026.4S   5/ 6   2/11
CAPE MAY NJ      2300   67 76   70/  8/ 11 1025.2S
LEWES DE         2300   68 73   80/ 16/ 20 1025.1S
15NM E FENWICK I 2300   70 72              1024.8R   5/ 7
OCEAN-CITY-INLET 2300   70 72   80/ 11/ 15 1024.7R
WACHAPREAGUE VA  2300   72 75   80/  7/  9 1024.3S
THOMAS POINT MD  2300   69 74  100/ 17/ 19 1025.8R
GOOSES REEF MD   2300   71     120/ 16/ 17 1025.1S
COVE POINT MD    2300   70     130/ 15/ 18 1024.7F
SOLOMONS ISLAND  2300      76                N/A
BISHOPS HEAD MD  2300   70 74   80/ 12/ 16 1024.4S
PINEY POINT MD   2300          110/ 14/ 16   N/A
POTOMAC MD       2300   73     120/ 12/ 16 1023.9R
CAMBRIDGE MD     2300   69 74   80/ 12/ 14 1024.7S
LEWISETTA VA     2300   73 75  100/ 15/ 19 1023.8F
RAPPAHANNOCK LGT 2300           70/ 10/ 11 1024.8S
STINGRAY PT      2300   72     120/ 10/ 14   N/A
YORK RVR RNG VA  2300   73     100/  7/ 10 1023.8R
YORKTOWN VA      2300   73 76  110/  8/ 10 1023.9S
JAMESTOWN VA     2300   72     110/  6/  8   N/A
DOMINION TERM VA 2300   72      80/ 10/ 13 1024.1S
KIPTOPEKE VA     2300      80   90/  4/  5   N/A
CHES BAY BRIDGE  2300   72 76   60/ 12/ 13 1023.6S
CAPE HENRY VA    2300   72      80/ 11/ 13 1022.8S
CHESAPEAKE LGHT  2200   72      70/ 11/ 12 1024.5R
WILLOUBY STN VA  2300   72      80/  7/  9 1022.8S
S CRANEY ISL VA  2300           50/  8/ 10 1023.7S
CAPE HENRY BUOY  2300      76                N/A     3/ 9
1ST LANDING BUOY 2300   73      80/ 10/ 12 1023.6S
CAPE CHARLES BUO 2300      75                N/A     3/10   2/10
OFFSHORE WE BUOY 2300      75                N/A     3/ 7   3/ 7
64NM E OF VA BCH 2300   73 75   40/ 16/ 19 1023.1R   4/ 9   2/ 9
DUCK PIER NC     2300   73 75   50/ 16/ 18 1022.8R
44100 DUCK FRF   2300      74                N/A     4/ 6   2/11
44056 DUCK FRF   2300                        N/A     4/ 8   2/11
OREGON INLET NC  2300   73 74   30/ 14/ 18 1022.8R
HATTERAS NC      2300   74 75   40/ 12/ 18 1022.4F
DIAMOND SHLS NC  2300   76      20/ 19/ 23 1020.9R   6/ 6   2/ 9
CAPE LOOKOUT NC  2200   75      40/ 21/ 25 1021.1R
$$


USA.gov is the U.S. government's official web portal to all federal, state and local government web resources and services.